Cloud_Cover
0 0 0 0 0 0 0 0 0 0 0 0 0 0 0 0 0 0 0 0 0 0 0 0 1 10 5 3 71 83 100 100 100 100 100 100 78 59 20 2 0 1 0 0 0
0 0 0 0 0 0 0 0 0 0 0 0 0 0 2 5 14 0 0 0 0 0 0 0 0 0 0 1 3 82 97 100 100 100 52 10 41 98 91 4 0 4 0 0 0
0 0 0 0 0 0 0 0 0 0 0 0 0 0 0 9 0 0 0 0 0 0 0 0 0 0 0 0 1 84 84 98 43 93 5 9 5 0 2 0 0 0 0 0 0
0 0 0 0 0 0 0 0 0 0 0 0 0 0 0 25 0 0 0 0 0 0 0 0 0 0 0 3 96 7 56 100 99 62 5 5 4 0 2 0 0 0 0 0 0
0 0 0 0 0 0 0 0 0 0 0 0 0 9 2 0 0 0 0 0 0 0 0 0 0 0 0 0 19 15 15 70 62 84 19 5 45 6 3 2 0 0 0 0 0
0 0 0 0 0 0 0 0 0 0 0 0 1 62 14 0 0 0 0 0 0 0 0 0 0 0 0 0 0 0 5 13 68 99 80 26 100 5 5 1 0 0 0 0 0
0 0 0 0 0 0 0 0 0 0 0 0 2 22 0 0 0 0 0 0 0 0 0 0 0 0 0 0 0 0 0 0 6 7 100 20 12 48 10 64 0 0 0 0 0
0 0 0 0 0 0 0 0 0 0 0 0 15 21 2 0 0 0 0 0 0 0 0 0 0 0 0 0 0 0 0 0 0 4 8 29 7 0 1 21 0 0 0 0 0
1 0 1 0 0 0 0 0 0 0 0 20 24 2 0 0 0 0 0 0 0 0 0 0 0 0 0 0 0 0 0 0 0 76 16 18 59 2 1 2 0 0 0 0 0
5 5 0 0 0 0 0 0 0 0 0 1 0 0 0 0 0 0 0 0 0 0 0 0 0 0 0 0 0 0 0 0 0 51 4 5 12 5 6 80 81 0 0 0 0
0 0 0 0 0 0 0 18 0 0 0 0 0 0 0 0 0 0 0 0 0 0 0 0 0 0 0 0 0 0 0 0 3 19 84 94 22 84 5 5 2 0 0 0 0
0 0 0 0 0 0 0 0 0 0 0 0 0 0 0 0 0 0 0 0 0 0 0 0 0 0 0 0 0 0 0 0 0 1 5 39 16 37 20 5 0 1 0 0 0
0 0 0 0 0 0 0 0 0 0 0 0 0 0 0 0 0 0 0 0 0 0 0 0 0 0 0 0 0 0 0 0 0 0 3 72 78 7 6 5 4 1 0 0 0
0 0 0 0 0 0 0 0 0 0 0 1 0 0 0 0 0 0 0 0 0 0 0 0 0 0 0 0 0 0 0 3 2 4 33 47 62 39 5 51 6 0 1 0 0
0 0 0 3 17 0 0 0 0 0 0 0 0 0 0 0 0 0 0 0 0 0 0 0 0 0 0 0 0 0 0 0 3 0 0 41 4 5 66 5 5 0 0 0 0
0 0 0 10 0 0 0 0 0 0 0 4 0 0 0 0 0 0 0 0 0 0 0 0 0 0 0 0 0 0 0 0 4 32 1 0 0 1 3 2 0 3 4 0 0
0 0 0 0 4 0 0 0 0 0 0 0 0 0 2 1 0 0 0 0 0 0 0 0 0 0 0 0 0 0 0 0 0 2 0 0 2 0 0 1 0 4 0 0 4
0 0 0 0 0 0 0 0 0 0 0 0 0 0 0 0 0 0 0 0 0 0 0 0 0 0 0 0 0 0 0 0 0 0 0 0 1 0 4 1 5 3 0 4 2
0 0 0 0 0 0 0 0 0 0 0 0 0 0 0 0 0 0 0 0 3 0 0 0 0 0 0 0 0 0 0 0 0 0 0 0 0 0 0 5 0 2 5 19 76
55 22 0 0 0 0 0 0 0 0 0 0 0 0 0 0 0 0 0 0 0 4 5 0 0 0 0 0 0 0 0 0 0 0 0 0 0 5 0 0 0 0 1 1 62
83 4 0 0 0 0 0 0 0 0 0 0 0 0 0 0 0 0 2 5 3 2 0 7 0 0 0 0 0 0 0 0 0 0 0 0 0 4 3 0 0 0 5 12 4
6 8 0 0 0 3 4 0 0 0 0 0 0 0 0 0 0 0 0 5 2 1 0 3 5 16 0 0 0 0 0 0 0 0 0 0 20 0 0 2 5 5 19 83 72
66 3 0 12 13 36 100 100 100 79 20 0 1 1 0 0 0 0 0 5 0 0 0 0 4 53 15 38 12 4 2 0 0 0 0 0 2 0 0 3 0 2 3 48 99
34 44 0 74 100 96 95 100 100 99 92 49 5 5 4 0 0 0 0 4 1 0 0 0 0 4 100 77 1 5 5 0 5 0 0 0 0 0 0 0 0 5 69 16 44
58 22 5 12 94 100 100 100 100 100 70 62 74 55 5 3 4 1 0 0 0 0 0 0 0 0 14 5 5 5 5 2 5 0 0 46 0 0 0 0 0 5 5 20 9
100 72 93 89 49 43 100 100 98 83 62 57 72 5 4 5 5 5 3 0 0 0 2 0 0 0 1 21 5 5 4 4 18 5 6 8 0 0 0 0 0 5 4 0 4
98 100 100 100 100 36 19 100 100 100 100 100 97 48 5 2 0 4 22 8 7 76 95 23 0 0 0 0 0 0 29 52 5 5 5 4 40 6 0 0 0 0 0 4 5